Погода в Лискирде

Великобритания     50°27′12″N   4°27′53″W
темп.,
°C
ветер,
м/с
пор.,
м/с
влажн.,
%
обл.,
%
осадки,
мм/ч
давл.,
гПа
погр.,
м
17 мая, вт
вт1701:00+11ю512955 0.0 1015405
04:00+12ю5149614 0.0 1015594
07:00+13ююв5129411 0.0 1015547
10:00+16ю7137912 0.0 1015913
13:00+17ююв9137452 0.0 1013897
16:00+13зюз71197100 3.6 1013647
19:00+12ююз498934 3.7 1015689
22:00+10ююз4109737 0.0 1017379
18 мая, ср
ср1801:00+11ююз5129778 0.1 1017638
04:00+10ююз399712 0.1 1018258
07:00+11ю3897100 0.1 1019444
10:00+14ю71082100 0.0 1019905
13:00+15ююв91277100 0.0 10181088
16:00+12ю61396100 0.9 1017731
19:00+12ю41193100 1.1 1018629
22:00+11ююз2797100 0.1 1018186
19 мая, чт
чт1901:00+9з1192100 0.1 101814
04:00+8зсз019443 0.0 101812
07:00+10з129283 0.0 101977
10:00+13юз34730 0.0 1020825
13:00+16ююз456596 0.1 10201405
16:00+15ююз557049 0.1 10201123
19:00+13ююз4580100 0.1 1020720
22:00+9ююз2294100 0.0 102134
20 мая, пт
пт2001:00+10ю3596100 0.0 1020123
04:00+10ю3895100 0.0 1019293
07:00+11ююз51092100 0.1 1019583
10:00+14юз7108030 0.1 10181040
13:00+16юз81169100 0.3 10181345
16:00+16юз91275100 0.5 10181309
19:00+14зюз71289100 1.0 1019949
22:00+12зюз51196100 0.0 1020564
21 мая, сб
сб2101:00+11зюз41097100 0.0 1020447
04:00+10зюз389899 0.0 1019248
07:00+11зюз279662 0.0 1020300
10:00+15зюз357497 0.0 1020794
13:00+17юз3468100 0.0 10191085
16:00+15ююз4477100 0.0 1019702
19:00+15ююз2283100 0.1 1018379
22:00+11сз0092100 0.0 101910